Regional Weather Roundup
Issued by NWS Charleston, SC

Current Version | Previous Version | Graphics & Text | Print | Product List | Glossary On
Versions: 1 2 3 4 5 6 7 8 9 10 11 12 13 14 15 16 17 18 19 20 21 22 23 24 25 26 27 28 29 30 31 32 33 34 35 36 37 38 39 40 41 42 43 44 45 46 47 48 49 50
000
ASUS42 KCHS 201910
RWRCHS

REGIONAL WEATHER ROUNDUP
NATIONAL WEATHER SERVICE CHARLESTON SC
300 PM EDT WED AUG 20 2014

NOTE: "FAIR" INDICATES FEW OR NO CLOUDS BELOW 12,000 FEET WITH NO
SIGNIFICANT WEATHER AND/OR OBSTRUCTIONS TO VISIBILITY.

NOT ALL STATIONS ARE QUALITY CONTROLLED BY THE NATIONAL
WEATHER SERVICE. USE DATA WITH CAUTION...ESPECIALLY
DEWPOINT OBSERVATIONS.

SCZ027-030-031-034>040-042>050-202000-
...SOUTH CAROLINA...

CITY           SKY/WX    TMP DP  RH WIND       PRES   REMARKS
N CHARLESTON   MOSUNNY   94  72  48 VRB6      29.98F HX 102
WATERFRONT PRK   N/A     90 N/A N/A W6G13       N/A
FORT JOHNSON   NOT AVBL
MOUNT PLEASANT FAIR      91  72  52 CALM      29.97F HX  98
JOHNS ISLAND   PTCLDY    93  75  55 W8        29.98F HX 104
PINOPOLIS        N/A     91  75  59 NE2       29.93S HX 102
MONCKS CORNER    N/A     91  77  62 CALM      29.98F HX 105
SUMMERVILLE    FAIR      91  73  55 SW6       29.99F HX 100
BEAUFORT MCAS  PTSUNNY   93  72  50 NW10      29.99F HX 101
BEAUFORT ARPT  FAIR      93  73  52 W8G18     29.98F HX 102
HILTON HEAD IS SUNNY     90  72  55 W9        30.00F HX  96
GEORGETOWN     NOT AVBL
WALTERBORO     NOT AVBL
ORANGEBURG     SUNNY     92  69  47 VRB3      29.98F HX  97
BARNWELL       MOCLDY    91  72  52 W9        30.00F HX  98
AIKEN          FAIR      91  70  49 CALM      30.03F HX  97
MANNING        FAIR      91  75  59 S5        29.97F HX 102
KINGSTREE      NOT AVBL
COLUMBIA       MOSUNNY   95  66  38 W7        29.97F HX  98
SUMTER         SUNNY     91  72  52 CALM      29.96F HX  99
FLORENCE       SUNNY     91  69  48 N3        29.96F HX  96
MYRTLE BEACH   MOSUNNY   88  75  66 S12       29.98F HX  97
N MYRTLE BEACH SUNNY     85  76  74 S10       29.97S HX  94

$$

GAZ063-065-086>088-099>101-113>116-118-119-134-136>141-150-202000-
...GEORGIA...

CITY           SKY/WX    TMP DP  RH WIND       PRES   REMARKS
SAVANNAH ARPT  MOSUNNY   92  70  48 NW6       30.01S HX  97
HUNTER AAF     MOSUNNY   94  73  50 W12G18    29.99F HX 102
FORT STEWART   MOSUNNY   93  72  49 NW10      30.00F HX 101
STATESBORO     NOT AVBL
SYLVANIA       PTCLDY    93  75  55 NW6       30.01F HX 105
CLAXTON        FAIR      95  77  55 NW9       30.01F HX 109
THOMSON        MOSUNNY   95  76  53 CALM      30.04F HX 108
AUGUSTA-BUSH   MOSUNNY   95  68  41 N6        29.98F HX  99
AUGUSTA-DANIEL MOSUNNY   96  69  41 VRB6      30.01F HX 102
SWAINSBORO     FAIR      97  72  44 N8        30.02F HX 105
VIDALIA          N/A     91  72  52 NW6       30.02F HX  98
ALMA           MOSUNNY   93  72  50 SW8       30.03F HX 101
WAYCROSS       MOSUNNY   96  75  50 W7G18     30.03F HX 109
JESUP            N/A     95  75  52 W8        30.03S HX 107
BRUNSWICK      MOSUNNY   95  70  43 W9        30.03F HX 101
SAINT SIMONS   MOSUNNY   93  70  46 NW9       30.02F HX  99

$$

SCZ027-028-034-036>038-045-046-048>050-GAZ119-141-202000-
...LAKE AND SUPPLEMENTAL COASTAL OBSERVATIONS...

STATION/POSITION TIME  TEMP    WIND        PRES    WAVE   SWELL
                       AIR SEA DIR/SP/G            HT/PER HT/PER/DIR
                 (UTC) (F)     (DEG/KT/KT) (MB)    (FT/S) (FT/S/D)
UPR LAKE MARION  NOT AVBL
WINYAH BAY       1800   85     140/  7     1015.0S
LAKE MURRAY      1800   89     200/  5/  7 1015.2S
ACE BASIN NERRS  1800   90     260/  4     1016.0S
FORT PULASKI     1900   89     280/ 11/ 13 1016.2F
SAPELO ISLAND    1800   92     260/  7     1018.0S

$$

ANZ835-935-AMZ111-154-330-350-352-354-374-450-454-472-202000-
...C-MAN AND BUOY OBSERVATIONS...

STATION/POSITION TIME  TEMP    WIND        PRES    WAVE   SWELL
                       AIR SEA DIR/SP/G            HT/PER HT/PER/DIR
                 (UTC) (F)     (DEG/KT/KT) (MB)    (FT/S) (FT/S/D)
FOLLY BEACH CMAN 1800   84     210/ 14/ 15 1016.1F
BUOY 41004       1900   82 84  220/ 12/ 14 1015.0F   3/ 6   2/ 6
BUOY 41008       1900   85 85  210/ 10/ 12 1016.5F   1/ 3   2/100/ 8
5E ST. MARYS GA  1900      84                N/A     1/ 8
FRYING PAN BUOY  NOT AVBL
BUOY 41025       1900   78     320/  8/ 12 1014.4S   2/ 7   2/150/ 7
CAPE LOOKOUT NC  1800   81     130/  6/  7 1015.2R
BUOY 41002       1837   79 81  250/ 14/ 16 1017.1F   6/ 7   3/270/ 8
BUOY 41010       1900   84 86  280/  6/  8 1018.4F   2/ 4   2/230/ 4
BUOY 41012       NOT AVBL
ST AUGUSTINE FL  1900   92     260/  7/ 10 1017.9F
CAPERS NEARSHORE 1800   85     200/ 10/ 12   N/A
FRIPP NEARSHORE  NOT AVBL


$$



USA.gov is the U.S. government's official web portal to all federal, state and local government web resources and services.